FW9285 Weather Reports


Display with metric or nautical units.
time (UTC)temp
F
wind
direction
speed
MPH
gust
MPH
rain 1hr
in
rain 24hr
in
rain mn
in
humidity
%
barometer
mb
20260903064702 86 242 2.0 4.0 0.00 0.00 0.00 55 1012.3
20260903063702 87 141 2.0 4.0 0.00 0.00 0.00 54 1012.1
20260903062702 87 211 4.0 6.0 0.00 0.00 0.00 53 1012.0
20260903061702 87 245 3.0 6.0 0.00 0.00 0.00 54 1012.2
20260903060705 89 238 1.0 4.0 0.00 0.00 0.00 48 1011.7
20260903055703 89 263 3.0 4.0 0.00 0.00 0.00 48 1011.8
20260903054702 89 233 0.0 4.0 0.00 0.00 0.00 47 1011.6
20260903053703 89 246 2.0 3.0 0.00 0.00 0.00 48 1011.6
20260903052703 90 258 2.0 4.0 0.00 0.00 0.00 47 1011.6
20260903051702 90 267 2.0 5.0 0.00 0.00 0.00 47 1011.9
20260903050705 90 272 0.0 5.0 0.00 0.00 0.00 47 1011.7
20260903045703 91 285 3.0 5.0 0.00 0.00 0.00 46 1011.6
20260903044702 91 271 2.0 5.0 0.00 0.00 0.00 47 1011.8
20260903043703 91 267 1.0 5.0 0.00 0.00 0.00 47 1011.7
20260903042703 91 221 3.0 7.0 0.00 0.00 0.00 47 1011.8
20260903041702 90 294 0.0 11.0 0.00 0.00 0.00 47 1011.9
20260903040707 90 237 5.0 12.0 0.00 0.00 0.00 47 1011.9
20260903034702 93 239 4.0 8.0 0.00 0.00 0.00 41 1011.7
20260903031702 93 263 0.0 2.0 0.00 0.00 0.00 40 1010.9
20260903030704 93 205 0.0 0.0 0.00 0.00 0.00 41 1010.6
20260903024659 94 224 0.0 0.0 0.00 0.00 0.00 40 1010.5
20260903023659 94 89 0.0 1.0 0.00 0.00 0.00 40 1010.5
20260903022659 94 173 0.0 1.0 0.00 0.00 0.00 39 1010.5
20260903021659 95 119 0.0 0.0 0.00 0.00 0.00 38 1010.3
20260903020659 96 333 0.0 3.0 0.00 0.00 0.00 38 1010.2
20260903015659 96 81 0.0 2.0 0.00 0.00 0.00 36 1010.3
20260903014659 96 116 0.0 3.0 0.00 0.00 0.00 36 1010.4
20260903011659 98 246 0.0 5.0 0.00 0.00 0.00 32 1010.1
20260903010701 98 246 2.0 3.0 0.00 0.00 0.00 33 1010.1
20260903005659 101 169 1.0 4.0 0.00 0.00 0.00 31 1010.1
20260903004659 101 341 0.0 3.0 0.00 0.00 0.00 31 1010.0
20260903003701 100 115 0.0 4.0 0.00 0.00 0.00 31 1010.0
20260903002659 101 242 2.0 5.0 0.00 0.00 0.00 30 1010.0
20260903001659 102 219 2.0 6.0 0.00 0.00 0.00 30 1010.0
20260903000659 101 349 4.0 4.0 0.00 0.00 0.00 31 1010.1
20260902235659 102 349 2.0 6.0 0.00 0.00 0.00 31 1010.0
20260902234659 102 325 5.0 10.0 0.00 0.00 0.00 31 1010.2
20260902233659 103 7 3.0 4.0 0.00 0.00 0.00 31 1010.5
20260902232701 104 235 2.0 5.0 0.00 0.00 0.00 31 1010.3
20260902231659 102 128 2.0 4.0 0.00 0.00 0.00 33 1010.7
20260902230659 100 34 1.0 3.0 0.00 0.00 0.00 33 1010.6
20260902225659 101 13 2.0 6.0 0.00 0.00 0.00 33 1010.9
20260902223659 103 211 1.0 4.0 0.00 0.00 0.00 32 1010.8
20260902222659 102 117 0.0 7.0 0.00 0.00 0.00 33 1011.1
20260902221659 101 253 4.0 10.0 0.00 0.00 0.00 34 1011.2
20260902220659 101 156 1.0 8.0 0.00 0.00 0.00 33 1011.5
20260902215659 101 192 0.0 12.0 0.00 0.00 0.00 34 1011.7
20260902214700 102 190 2.0 7.0 0.00 0.00 0.00 33 1011.7
20260902213659 101 188 0.0 10.0 0.00 0.00 0.00 34 1011.7
20260902212659 102 159 2.0 5.0 0.00 0.00 0.00 34 1012.0
20260902211702 101 261 0.0 9.0 0.00 0.00 0.00 35 1012.2
20260902210700 101 292 1.0 11.0 0.00 0.00 0.00 35 1012.4
20260902205659 100 112 2.0 7.0 0.00 0.00 0.00 36 1012.2
20260902204659 99 293 2.0 6.0 0.00 0.00 0.00 37 1012.4
20260902203659 98 340 2.0 5.0 0.00 0.00 0.00 38 1012.6
20260902202659 100 260 3.0 9.0 0.00 0.00 0.00 37 1013.0
20260902201707 98 122 3.0 11.0 0.00 0.00 0.00 38 1013.1
20260902200700 99 227 5.0 11.0 0.00 0.00 0.00 39 1013.4
20260902195659 98 0 2.0 12.0 0.00 0.00 0.00 40 1013.6
20260902194659 98 197 2.0 6.0 0.00 0.00 0.00 40 1013.5
20260902193659 98 260 3.0 9.0 0.00 0.00 0.00 41 1014.0
20260902192659 98 156 4.0 7.0 0.00 0.00 0.00 41 1014.1
20260902191659 97 213 3.0 9.0 0.00 0.00 0.00 41 1014.2
20260902190659 98 248 0.0 7.0 0.00 0.00 0.00 40 1014.3
20260902185659 97 239 1.0 6.0 0.00 0.00 0.00 41 1014.3
20260902184659 97 164 2.0 7.0 0.00 0.00 0.00 43 1014.4
20260902183659 95 177 2.0 7.0 0.00 0.00 0.00 45 1014.6
20260902181659 96 210 4.0 7.0 0.00 0.00 0.00 44 1015.1
20260902180659 96 213 2.0 10.0 0.00 0.00 0.00 44 1015.1
20260902175702 94 185 3.0 8.0 0.00 0.00 0.00 45 1015.2
20260902174700 94 277 0.0 6.0 0.00 0.00 0.00 46 1015.3
20260902173659 94 198 4.0 6.0 0.00 0.00 0.00 46 1015.2
20260902172659 93 352 2.0 7.0 0.00 0.00 0.00 48 1015.2
20260902171659 93 208 2.0 6.0 0.00 0.00 0.00 48 1015.3
20260902170700 93 200 2.0 10.0 0.00 0.00 0.00 47 1015.3
20260902165658 91 232 3.0 6.0 0.00 0.00 0.00 53 1015.5
20260902164659 92 145 2.0 6.0 0.00 0.00 0.00 52 1015.5
20260902163659 90 198 1.0 9.0 0.00 0.00 0.00 56 1015.5
20260902161659 89 230 4.0 6.0 0.00 0.00 0.00 59 1015.4
20260902160702 91 150 2.0 4.0 0.00 0.00 0.00 57 1015.2
20260902155659 89 260 4.0 6.0 0.00 0.00 0.00 59 1015.1
20260902154659 90 185 0.0 5.0 0.00 0.00 0.00 59 1015.0
20260902153658 89 147 2.0 4.0 0.00 0.00 0.00 60 1015.2
20260902152659 89 142 2.0 3.0 0.00 0.00 0.00 60 1015.2
20260902151700 89 199 1.0 3.0 0.00 0.00 0.00 59 1015.1
20260902150659 87 180 2.0 3.0 0.00 0.00 0.00 63 1015.1
20260902145700 85 237 2.0 3.0 0.00 0.00 0.00 66 1014.9
20260902144659 83 191 2.0 3.0 0.00 0.00 0.00 69 1015.0
20260902143702 83 167 2.0 4.0 0.00 0.00 0.00 71 1014.6
20260902142659 82 165 2.0 3.0 0.00 0.00 0.00 72 1015.0
20260902141659 82 205 0.0 2.0 0.00 0.00 0.00 73 1014.8
20260902135659 80 234 0.0 2.0 0.00 0.00 0.00 74 1014.6
20260902134700 80 269 0.0 2.0 0.00 0.00 0.00 75 1014.4
20260902132659 79 221 1.0 3.0 0.00 0.00 0.00 75 1014.1
20260902131659 78 196 1.0 3.0 0.00 0.00 0.00 75 1014.3
20260902130659 78 251 1.0 2.0 0.00 0.00 0.00 75 1013.9
20260902125659 78 198 1.0 3.0 0.00 0.00 0.00 74 1013.9
20260902124702 78 192 1.0 2.0 0.00 0.00 0.00 74 1014.1
20260902123659 79 223 0.0 2.0 0.00 0.00 0.00 74 1013.8
20260902122659 79 160 1.0 2.0 0.00 0.00 0.00 74 1013.8
20260902121700 79 201 1.0 3.0 0.00 0.00 0.00 73 1013.8
20260902120659 79 197 2.0 3.0 0.00 0.00 0.00 73 1013.6
20260902114659 79 198 1.0 2.0 0.00 0.00 0.00 73 1013.6
20260902113700 79 317 0.0 2.0 0.00 0.00 0.00 73 1013.4
20260902112659 79 195 1.0 3.0 0.00 0.00 0.00 73 1013.4
20260902111659 79 171 2.0 3.0 0.00 0.00 0.00 73 1013.2
20260902110659 80 249 0.0 2.0 0.00 0.00 0.00 73 1013.2
20260902105701 80 204 0.0 2.0 0.00 0.00 0.00 73 1013.4
20260902103659 80 218 1.0 2.0 0.00 0.00 0.00 74 1013.6
20260902102659 80 227 1.0 2.0 0.00 0.00 0.00 74 1013.4
20260902101659 80 163 0.0 3.0 0.00 0.00 0.00 72 1013.4
20260902100659 80 206 0.0 2.0 0.00 0.00 0.00 72 1013.5
20260902094659 80 191 0.0 2.0 0.00 0.00 0.00 72 1013.2
20260902093659 80 300 2.0 2.0 0.00 0.00 0.00 73 1013.2
20260902092659 80 154 0.0 2.0 0.00 0.00 0.00 72 1013.3
20260902091659 81 225 1.0 2.0 0.00 0.00 0.00 71 1013.4
20260902090700 81 202 1.0 2.0 0.00 0.00 0.00 71 1013.3
20260902085659 81 228 1.0 2.0 0.00 0.00 0.00 71 1013.4
20260902084659 81 228 1.0 2.0 0.00 0.00 0.00 72 1013.2
20260902083700 81 228 0.0 2.0 0.00 0.00 0.00 72 1013.6
20260902082659 82 214 1.0 2.0 0.00 0.00 0.00 70 1013.5
20260902081658 82 193 1.0 2.0 0.00 0.00 0.00 69 1013.3
20260902080659 82 206 2.0 2.0 0.00 0.00 0.00 69 1013.2
20260902075659 82 205 1.0 3.0 0.00 0.00 0.00 68 1013.4
20260902074659 82 196 1.0 3.0 0.00 0.00 0.00 68 1013.3
20260902073659 82 226 1.0 3.0 0.00 0.00 0.00 68 1013.3
20260902072659 82 209 2.0 4.0 0.00 0.00 0.00 68 1013.3
20260902071659 83 209 1.0 3.0 0.00 0.00 0.00 66 1013.3
20260902070659 83 225 2.0 3.0 0.00 0.00 0.00 64 1013.2